Location: Hannover
(52.4091°N, 9.7504°E)
Time: 16:47:01
(UTC+01:00)

ISS - Pass Details

Date: 16 November 2025
Orbit: 416 x 420 km, 51.6° (Epoch: 12 December)

Event Time Altitude Azimuth Distance (km) Brightness Sun altitude
Rises 17:20:40 0° 201° (SSW) 2,360 0.7 -8.3°
Reaches altitude 10° 17:23:26 10° 176° (S) 1,498 -0.7 -8.7°
Maximum altitude 17:25:21 15° 141° (SE) 1,253 -1.5 -8.9°
Drops below altitude 10° 17:27:18 10° 106° (ESE) 1,501 -1.4 -9.2°
Enters shadow 17:27:30 - 103° (ESE) 1,551 -1.4 -9.2°
